EW2875 Weather Reports


Display with metric or nautical units.
time (UTC)temp
F
wind
direction
speed
MPH
gust
MPH
rain 1hr
in
rain 24hr
in
rain mn
in
humidity
%
barometer
mb
20260906081524 54 160 16.0 22.0 0.00 0.14 0.14 96 1011.2
20260906080003 54 156 14.0 20.0 0.00 0.14 0.14 96 1011.5
20260906074503 54 156 15.0 21.0 0.01 0.14 0.14 97 1011.6
20260906073003 54 155 13.0 19.0 0.01 0.14 0.14 96 1011.9
20260906071503 53 152 11.0 20.0 0.01 0.14 0.14 97 1011.8
20260906070003 53 153 9.0 15.0 0.01 0.14 0.14 96 1012.2
20260906064518 53 154 12.0 18.0 0.00 0.13 0.13 96 1012.4
20260906063003 52 155 12.0 19.0 0.01 0.13 0.13 96 1012.5
20260906061524 52 162 15.0 20.0 0.01 0.13 0.13 96 1012.4
20260906060024 52 155 12.0 20.0 0.02 0.13 0.13 96 1012.5
20260906054524 52 145 11.0 16.0 0.04 0.13 0.13 97 1012.6
20260906053003 52 136 9.0 12.0 0.05 0.12 0.12 96 1012.5
20260906051524 52 140 5.0 11.0 0.08 0.12 0.12 96 1013.4
20260906050003 52 151 7.0 11.0 0.07 0.11 0.11 96 1013.6
20260906044503 52 162 9.0 13.0 0.06 0.09 0.09 96 1014.1
20260906043003 52 171 11.0 15.0 0.05 0.07 0.07 95 1014.6
20260906041524 52 169 11.0 14.0 0.03 0.04 0.04 95 1015.2
20260906040003 52 167 8.0 12.0 0.03 0.04 0.04 94 1015.1
20260906034503 52 174 11.0 16.0 0.02 0.03 0.03 93 1015.2
20260906033024 52 186 11.0 18.0 0.02 0.02 0.02 92 1015.3
20260906031503 52 185 16.0 22.0 0.01 0.01 0.01 92 1015.7
20260906030024 52 179 13.0 20.0 0.01 0.01 0.01 92 1015.6
20260906024503 52 176 13.0 18.0 0.01 0.01 0.01 91 1015.7
20260906023003 52 171 9.0 15.0 0.00 0.00 0.00 91 1016.2
20260906021503 52 171 13.0 16.0 0.00 0.00 0.00 90 1016.5
20260906020003 52 168 10.0 13.0 0.00 0.00 0.00 91 1016.8
20260906014505 52 170 8.0 11.0 0.00 0.00 0.00 91 1017.0
20260906013005 51 172 8.0 11.0 0.00 0.00 0.00 90 1017.3
20260906011505 52 175 9.0 11.0 0.00 0.00 0.00 90 1017.3
20260906010005 52 178 9.0 11.0 0.00 0.00 0.00 90 1017.7
20260906004526 52 175 10.0 12.0 0.00 0.00 0.00 91 1017.8
20260906003005 52 172 9.0 13.0 0.00 0.00 0.00 90 1017.6
20260906001505 52 170 10.0 12.0 0.00 0.01 0.00 90 1017.8
20260906000005 52 172 11.0 12.0 0.00 0.01 0.00 91 1018.0
20260905234505 51 176 9.0 11.0 0.00 0.01 0.00 91 1018.3
20260905233005 52 186 8.0 11.0 0.00 0.01 0.00 90 1018.7
20260905231505 52 205 7.0 9.0 0.00 0.01 0.00 91 1018.8
20260905230005 52 208 6.0 10.0 0.00 0.01 0.00 91 1018.9
20260905224505 51 212 4.0 7.0 0.00 0.01 0.01 92 1018.7
20260905223005 51 200 5.0 8.0 0.00 0.01 0.01 91 1018.9
20260905221504 52 197 8.0 10.0 0.00 0.01 0.01 91 1019.0
20260905220005 52 196 7.0 9.0 0.00 0.01 0.01 91 1019.0
20260905214504 52 205 5.0 8.0 0.00 0.01 0.01 90 1019.0
20260905213005 52 234 3.0 5.0 0.00 0.01 0.01 90 1018.7
20260905211505 53 228 1.0 5.0 0.00 0.01 0.01 88 1018.9
20260905210004 53 239 5.0 9.0 0.00 0.01 0.01 89 1019.0
20260905204505 53 227 4.0 8.0 0.00 0.01 0.01 89 1018.8
20260905203004 53 240 2.0 8.0 0.00 0.01 0.01 89 1018.9
20260905201525 53 248 2.0 8.0 0.00 0.01 0.01 89 1018.8
20260905200005 54 250 1.0 7.0 0.00 0.01 0.01 88 1018.9
20260905194525 53 250 7.0 11.0 0.00 0.01 0.01 89 1018.8
20260905193005 54 247 1.0 10.0 0.00 0.01 0.01 88 1018.9
20260905191525 54 247 7.0 11.0 0.00 0.01 0.01 88 1018.7
20260905190005 55 254 5.0 9.0 0.00 0.01 0.01 86 1018.7
20260905184504 56 264 3.0 12.0 0.00 0.01 0.01 84 1018.5
20260905183004 56 258 2.0 8.0 0.00 0.01 0.01 84 1018.3
20260905181504 56 256 2.0 11.0 0.00 0.01 0.01 83 1018.2
20260905180005 57 264 1.0 7.0 0.00 0.01 0.01 82 1018.1
20260905174504 57 271 1.0 9.0 0.00 0.01 0.01 82 1018.0
20260905173004 57 284 2.0 10.0 0.00 0.01 0.01 81 1017.7
20260905171504 57 297 5.0 11.0 0.00 0.01 0.01 82 1017.6
20260905170025 57 305 6.0 11.0 0.00 0.01 0.01 83 1017.6
20260905164504 57 302 7.0 11.0 0.00 0.01 0.01 81 1017.6
20260905163004 57 295 3.0 9.0 0.00 0.01 0.01 81 1017.5
20260905161504 58 291 2.0 5.0 0.00 0.01 0.01 80 1017.4
20260905160004 58 311 5.0 12.0 0.00 0.01 0.01 79 1017.2
20260905154504 58 311 8.0 14.0 0.00 0.01 0.01 77 1017.2
20260905153004 59 302 8.0 14.0 0.00 0.01 0.01 75 1017.0
20260905151504 59 298 11.0 20.0 0.00 0.01 0.01 73 1016.9
20260905150004 59 295 12.0 20.0 0.00 0.01 0.01 73 1016.8
20260905144525 59 294 14.0 22.0 0.00 0.01 0.01 72 1016.7
20260905143004 60 296 14.0 22.0 0.00 0.01 0.01 73 1016.7
20260905141504 59 296 11.0 19.0 0.00 0.01 0.01 74 1016.7
20260905140005 59 290 7.0 18.0 0.00 0.01 0.01 71 1016.8
20260905134504 59 295 6.0 14.0 0.00 0.01 0.01 77 1016.7
20260905133004 58 298 13.0 23.0 0.00 0.01 0.01 77 1016.6
20260905131504 58 291 11.0 20.0 0.00 0.01 0.01 74 1016.2
20260905130004 58 289 10.0 20.0 0.00 0.01 0.01 73 1016.0
20260905124504 58 284 6.0 16.0 0.00 0.01 0.01 73 1015.9
20260905123025 57 283 9.0 22.0 0.00 0.01 0.01 74 1015.7
20260905121504 57 281 9.0 27.0 0.00 0.01 0.01 71 1015.5
20260905120004 58 281 8.0 25.0 0.00 0.01 0.01 70 1015.1
20260905114525 59 294 10.0 23.0 0.00 0.01 0.01 72 1014.9
20260905113004 57 292 14.0 27.0 0.00 0.02 0.01 74 1014.8
20260905111504 57 287 9.0 22.0 0.00 0.02 0.01 73 1014.6
20260905110004 56 288 12.0 26.0 0.00 0.02 0.01 71 1014.3
20260905104504 57 286 13.0 27.0 0.00 0.02 0.01 72 1014.0
20260905103004 57 285 15.0 33.0 0.00 0.06 0.01 73 1013.8
20260905101505 58 281 11.0 24.0 0.00 0.06 0.01 73 1013.5
20260905100004 57 278 8.0 25.0 0.00 0.06 0.01 74 1013.4
20260905094504 56 285 9.0 23.0 0.00 0.06 0.01 73 1013.0
20260905093025 57 291 10.0 20.0 0.00 0.06 0.01 75 1012.7
20260905091504 55 289 12.0 27.0 0.00 0.06 0.01 76 1012.5
20260905090004 56 288 14.0 31.0 0.00 0.06 0.01 76 1012.2
20260905084525 55 287 9.0 26.0 0.00 0.06 0.01 79 1011.8
20260905083004 54 291 12.0 30.0 0.00 0.06 0.01 82 1011.7